GW1821 Weather Reports


Display with metric or nautical units.
time (UTC)temp
F
wind
direction
speed
MPH
gust
MPH
rain 1hr
in
rain 24hr
in
rain mn
in
humidity
%
barometer
mb
20260508135314 50 243 1.0 4.0 0.00 0.00 0.00 54 1005.2
20260508134814 49 244 2.0 4.0 0.00 0.00 0.00 54 1005.4
20260508134312 49 244 2.0 6.0 0.00 0.00 0.00 54 1005.3
20260508133808 49 242 2.0 6.0 0.00 0.00 0.00 56 1005.4
20260508133307 48 246 2.0 4.0 0.00 0.00 0.00 55 1005.4
20260508132807 47 258 1.0 4.0 0.00 0.00 0.00 57 1005.4
20260508132536 46 252 1.0 4.0 0.00 0.00 0.00 58 1005.4
20260508131802 45 252 1.0 4.0 0.00 0.00 0.00 61 1005.5
20260508131258 44 252 0.0 2.0 0.00 0.00 0.00 64 1005.5
20260508131233 43 251 0.0 2.0 0.00 0.00 0.00 67 1005.5
20260508130252 42 252 0.0 1.0 0.00 0.00 0.00 72 1005.5
20260508130013 41 252 0.0 1.0 0.00 0.00 0.00 76 1005.6
20260508125247 40 251 0.0 1.0 0.00 0.00 0.00 82 1005.7
20260508124747 39 251 0.0 0.0 0.00 0.00 0.00 83 1005.6
20260508124244 39 251 0.0 0.0 0.00 0.00 0.00 84 1005.6
20260508123746 38 251 0.0 0.0 0.00 0.00 0.00 84 1005.6
20260508123221 38 251 0.0 0.0 0.00 0.00 0.00 84 1005.5
20260508122933 37 251 0.0 0.0 0.00 0.00 0.00 85 1005.5
20260508122424 37 251 0.0 0.0 0.00 0.00 0.00 85 1005.6
20260508121913 36 251 0.0 0.0 0.00 0.00 0.00 86 1005.5
20260508121151 36 251 0.0 0.0 0.00 0.00 0.00 86 1005.5
20260508120905 35 251 0.0 0.0 0.00 0.00 0.00 85 1005.5
20260508120136 35 251 0.0 0.0 0.00 0.00 0.00 85 1005.5
20260508115610 35 251 0.0 0.0 0.00 0.00 0.00 85 1005.4
20260508115056 35 251 0.0 0.0 0.00 0.00 0.00 85 1005.4
20260508114556 35 251 0.0 0.0 0.00 0.00 0.00 85 1005.3
20260508114019 35 251 0.0 0.0 0.00 0.00 0.00 85 1005.3
20260508114003 35 252 0.0 0.0 0.00 0.00 0.00 84 1005.2
20260508113231 35 251 0.0 0.0 0.00 0.00 0.00 85 1005.2
20260508112505 35 251 0.0 0.0 0.00 0.00 0.00 84 1005.2
20260508111953 34 252 0.0 0.0 0.00 0.00 0.00 84 1005.2
20260508111441 34 251 0.0 0.0 0.00 0.00 0.00 83 1005.2
20260508110940 35 251 0.0 0.0 0.00 0.00 0.00 83 1005.3
20260508110709 35 251 0.0 0.0 0.00 0.00 0.00 82 1005.2
20260508105940 35 251 0.0 0.0 0.00 0.00 0.00 82 1005.2
20260508105701 35 251 0.0 0.0 0.00 0.00 0.00 81 1005.2
20260508105400 35 251 0.0 0.0 0.00 0.00 0.00 81 1005.2
20260508104418 35 251 0.0 0.0 0.00 0.00 0.00 81 1005.2
20260508103915 35 251 0.0 0.0 0.00 0.00 0.00 81 1005.2
20260508103414 36 251 0.0 0.0 0.00 0.00 0.00 81 1005.2
20260508102910 36 251 0.0 0.0 0.00 0.00 0.00 80 1005.2
20260508102412 36 251 0.0 0.0 0.00 0.00 0.00 80 1005.3
20260508101904 36 251 0.0 0.0 0.00 0.00 0.00 80 1005.3
20260508101403 36 252 0.0 1.0 0.00 0.00 0.00 79 1005.4
20260508100858 36 251 0.0 1.0 0.00 0.00 0.00 79 1005.4
20260508100348 37 251 0.0 1.0 0.00 0.00 0.00 79 1005.4
20260508095845 37 251 0.0 2.0 0.00 0.00 0.00 79 1005.3
20260508095332 37 251 0.0 2.0 0.00 0.00 0.00 79 1005.3
20260508094832 37 251 0.0 2.0 0.00 0.00 0.00 79 1005.3
20260508094330 37 251 0.0 0.0 0.00 0.00 0.00 79 1005.3
20260508093829 37 251 0.0 0.0 0.00 0.00 0.00 79 1005.2
20260508093314 37 251 0.0 0.0 0.00 0.00 0.00 79 1005.2
20260508092809 37 251 0.0 0.0 0.00 0.00 0.00 78 1005.2
20260508092522 37 251 0.0 0.0 0.00 0.00 0.00 78 1005.2
20260508091742 37 251 0.0 0.0 0.00 0.00 0.00 78 1005.2
20260508091234 37 251 0.0 1.0 0.00 0.00 0.00 78 1005.2
20260508090730 37 251 0.0 1.0 0.00 0.00 0.00 78 1005.2
20260508090219 37 251 0.0 1.0 0.00 0.00 0.00 78 1005.2
20260508085706 37 251 0.0 1.0 0.00 0.00 0.00 78 1005.3
20260508085412 37 251 0.0 0.0 0.00 0.00 0.00 78 1005.2
20260508084641 37 251 0.0 0.0 0.00 0.00 0.00 78 1005.2
20260508084106 37 251 0.0 0.0 0.00 0.00 0.00 78 1005.2
20260508083550 37 251 0.0 0.0 0.00 0.00 0.00 78 1005.2
20260508083042 37 251 0.0 0.0 0.00 0.00 0.00 77 1005.3
20260508082534 37 251 0.0 1.0 0.00 0.00 0.00 77 1005.3
20260508082026 37 251 0.0 1.0 0.00 0.00 0.00 77 1005.4
20260508081520 38 251 0.0 1.0 0.00 0.00 0.00 76 1005.4
20260508081017 38 251 0.0 1.0 0.00 0.00 0.00 77 1005.4
20260508080510 38 251 0.0 1.0 0.00 0.00 0.00 76 1005.4
20260508080010 38 251 0.0 1.0 0.00 0.00 0.00 76 1005.4
20260508075506 38 251 0.0 1.0 0.00 0.00 0.00 76 1005.5
20260508075218 38 251 0.0 1.0 0.00 0.00 0.00 76 1005.4
20260508074442 38 251 0.0 1.0 0.00 0.00 0.00 75 1005.4
20260508073942 38 251 0.0 1.0 0.00 0.00 0.00 75 1005.5
20260508073427 38 251 0.0 0.0 0.00 0.00 0.00 74 1005.5
20260508072928 39 251 0.0 0.0 0.00 0.00 0.00 74 1005.5
20260508072420 39 251 0.0 0.0 0.00 0.00 0.00 74 1005.5
20260508071912 39 251 0.0 1.0 0.00 0.00 0.00 74 1005.6
20260508071602 39 251 0.0 1.0 0.00 0.00 0.00 74 1005.6
20260508070841 39 251 0.0 1.0 0.00 0.00 0.00 74 1005.7
20260508070329 39 251 0.0 1.0 0.00 0.00 0.00 74 1005.7
20260508070048 39 251 0.0 1.0 0.00 0.00 0.00 72 1005.7
20260508065328 39 251 0.0 2.0 0.00 0.00 0.00 71 1005.7
20260508064815 39 251 0.0 2.0 0.00 0.00 0.00 71 1005.7
20260508064537 40 251 0.0 0.0 0.00 0.00 0.00 71 1005.7
20260508063816 40 251 0.0 1.0 0.00 0.00 0.00 71 1005.8
20260508063244 40 251 0.0 1.0 0.00 0.00 0.00 71 1005.8
20260508063002 40 251 0.0 0.0 0.00 0.00 0.00 71 1005.8
20260508062242 40 251 0.0 0.0 0.00 0.00 0.00 70 1005.8
20260508061718 40 251 0.0 1.0 0.00 0.00 0.00 70 1005.9
20260508061434 40 251 0.0 1.0 0.00 0.00 0.00 70 1005.9
20260508060647 40 251 0.0 1.0 0.00 0.00 0.00 69 1006.0
20260508060140 40 251 0.0 1.0 0.00 0.00 0.00 69 1006.0
20260508055605 40 251 0.0 0.0 0.00 0.00 0.00 69 1006.0
20260508055105 40 251 0.0 2.0 0.00 0.00 0.00 69 1006.1
20260508054605 40 251 0.0 2.0 0.00 0.00 0.00 69 1006.1
20260508054106 40 252 0.0 2.0 0.00 0.00 0.00 70 1006.1
20260508053553 40 252 0.0 2.0 0.00 0.00 0.00 69 1006.1
20260508053041 40 252 0.0 1.0 0.00 0.00 0.00 69 1006.2
20260508052542 40 252 0.0 1.0 0.00 0.00 0.00 69 1006.2
20260508052038 40 252 0.0 1.0 0.00 0.00 0.00 68 1006.2
20260508051522 40 252 0.0 1.0 0.00 0.00 0.00 68 1006.2
20260508051447 40 252 0.0 1.0 0.00 0.00 0.00 68 1006.2
20260508050452 40 252 0.0 1.0 0.00 0.00 0.00 68 1006.2
20260508045937 41 252 0.0 1.0 0.00 0.00 0.00 67 1006.3
20260508045428 41 252 0.0 1.0 0.00 0.00 0.00 67 1006.3
20260508045147 41 252 0.0 1.0 0.00 0.00 0.00 66 1006.3
20260508044423 41 252 0.0 1.0 0.00 0.00 0.00 66 1006.3
20260508043922 41 252 0.0 0.0 0.00 0.00 0.00 67 1006.4
20260508043419 41 252 0.0 0.0 0.00 0.00 0.00 66 1006.4
20260508042917 42 252 0.0 0.0 0.00 0.00 0.00 66 1006.4
20260508042411 42 252 0.0 0.0 0.00 0.00 0.00 66 1006.5
20260508041907 42 252 0.0 0.0 0.00 0.00 0.00 65 1006.5
20260508041406 42 252 0.0 0.0 0.00 0.00 0.00 65 1006.5
20260508040905 43 252 0.0 0.0 0.00 0.00 0.00 64 1006.5
20260508040615 43 252 0.0 0.0 0.00 0.00 0.00 64 1006.6
20260508035844 43 252 0.0 0.0 0.00 0.00 0.00 63 1006.5
20260508035343 43 252 0.0 0.0 0.00 0.00 0.00 62 1006.6
20260508034810 44 252 0.0 0.0 0.00 0.00 0.00 59 1006.7
20260508034305 44 252 0.0 1.0 0.00 0.00 0.00 57 1006.6
20260508033729 44 252 0.0 1.0 0.00 0.00 0.00 56 1006.8
20260508033220 44 252 0.0 1.0 0.00 0.00 0.00 55 1006.8
20260508032703 45 252 0.0 1.0 0.00 0.00 0.00 55 1006.7
20260508032146 45 252 0.0 1.0 0.00 0.00 0.00 55 1006.7
20260508031636 45 252 0.0 0.0 0.00 0.00 0.00 55 1006.7
20260508031109 46 252 0.0 1.0 0.00 0.00 0.00 54 1006.7
20260508030601 46 252 0.0 1.0 0.00 0.00 0.00 54 1006.8
20260508030104 46 252 0.0 0.0 0.00 0.00 0.00 53 1006.8
20260508025604 47 252 0.0 0.0 0.00 0.00 0.00 53 1006.8
20260508025311 47 252 0.0 0.0 0.00 0.00 0.00 52 1006.8
20260508024523 48 252 0.0 2.0 0.00 0.00 0.00 51 1006.7
20260508024007 48 252 1.0 2.0 0.00 0.00 0.00 51 1006.7
20260508023454 48 252 1.0 2.0 0.00 0.00 0.00 50 1006.7
20260508023222 49 252 0.0 1.0 0.00 0.00 0.00 50 1006.7
20260508022447 49 252 0.0 1.0 0.00 0.00 0.00 51 1006.7
20260508021949 50 252 0.0 1.0 0.00 0.00 0.00 47 1006.6
20260508021446 50 252 0.0 0.0 0.00 0.00 0.00 46 1006.6
20260508020935 51 252 0.0 1.0 0.00 0.00 0.00 45 1006.6
20260508020425 51 252 0.0 1.0 0.00 0.00 0.00 44 1006.5
20260508015927 52 252 0.0 1.0 0.00 0.00 0.00 44 1006.5
20260508015426 53 252 0.0 1.0 0.00 0.00 0.00 44 1006.4
20260508014926 53 252 0.0 1.0 0.00 0.00 0.00 44 1006.4
20260508014423 54 252 0.0 1.0 0.00 0.00 0.00 42 1006.4
20260508013919 55 252 0.0 2.0 0.00 0.00 0.00 40 1006.3
20260508013414 55 252 0.0 2.0 0.00 0.00 0.00 40 1006.3
20260508013144 56 252 0.0 2.0 0.00 0.00 0.00 38 1006.3
20260508012413 56 252 1.0 3.0 0.00 0.00 0.00 39 1006.2
20260508011909 56 252 1.0 3.0 0.00 0.00 0.00 37 1006.3
20260508011408 56 252 1.0 3.0 0.00 0.00 0.00 39 1006.2
20260508010911 57 259 2.0 9.0 0.00 0.00 0.00 36 1006.2
20260508010355 57 260 3.0 9.0 0.00 0.00 0.00 35 1006.2
20260508010341 57 244 4.0 7.0 0.00 0.00 0.00 36 1006.2
20260508005343 57 260 4.0 8.0 0.00 0.00 0.00 36 1006.1
20260508004842 57 254 5.0 9.0 0.00 0.00 0.00 34 1006.1
20260508004341 57 259 5.0 9.0 0.00 0.00 0.00 35 1006.1
20260508003842 58 228 5.0 12.0 0.00 0.00 0.00 34 1006.1
20260508003336 58 226 4.0 12.0 0.00 0.00 0.00 35 1006.1
20260508002833 58 242 3.0 12.0 0.00 0.00 0.00 33 1006.2
20260508002332 58 198 4.0 12.0 0.00 0.00 0.00 34 1006.2
20260508001829 58 285 5.0 12.0 0.00 0.00 0.00 34 1006.2
20260508001329 58 241 4.0 12.0 0.00 0.00 0.00 33 1006.2
20260508001314 58 286 3.0 7.0 0.00 0.00 0.00 33 1006.2
20260508000329 58 240 3.0 8.0 0.00 0.00 0.00 33 1006.2
20260507235819 58 256 3.0 8.0 0.00 0.00 0.00 32 1006.3
20260507235809 58 267 3.0 11.0 0.00 0.00 0.00 32 1006.3
20260507234814 59 281 4.0 11.0 0.00 0.00 0.00 33 1006.3
20260507234311 59 238 3.0 11.0 0.00 0.00 0.00 32 1006.3
20260507233808 59 261 3.0 11.0 0.00 0.00 0.00 31 1006.4
20260507233310 60 270 4.0 11.0 0.00 0.00 0.00 31 1007.3
20260507232808 60 290 4.0 11.0 0.00 0.00 0.00 32 1006.5
20260507232300 59 221 4.0 13.0 0.00 0.00 0.00 31 1006.5
20260507231803 58 250 3.0 13.0 0.00 0.00 0.00 33 1006.5
20260507231301 58 252 4.0 13.0 0.00 0.00 0.00 32 1006.6
20260507230742 59 284 3.0 13.0 0.00 0.00 0.00 31 1006.6
20260507230242 59 289 3.0 8.0 0.00 0.00 0.00 31 1006.6
20260507225740 59 291 3.0 8.0 0.00 0.00 0.00 31 1006.7
20260507225241 58 294 2.0 5.0 0.00 0.00 0.00 33 1006.8
20260507224735 57 318 3.0 8.0 0.00 0.00 0.00 33 1006.8
20260507224230 58 304 3.0 8.0 0.00 0.00 0.00 33 1006.7
20260507223733 59 254 4.0 13.0 0.00 0.00 0.00 31 1006.7
20260507223223 60 290 5.0 13.0 0.00 0.00 0.00 31 1006.7
20260507222722 60 271 4.0 10.0 0.00 0.00 0.00 30 1006.7
20260507222223 60 234 3.0 10.0 0.00 0.00 0.00 33 1006.8
20260507221940 59 336 3.0 9.0 0.00 0.00 0.00 32 1006.8
20260507221215 58 291 4.0 9.0 0.00 0.00 0.00 32 1007.0
20260507220708 58 286 4.0 10.0 0.00 0.00 0.00 30 1007.0
20260507220213 59 314 4.0 10.0 0.00 0.00 0.00 30 1007.0
20260507215646 60 344 5.0 14.0 0.00 0.00 0.00 29 1007.1
20260507215144 59 292 6.0 14.0 0.00 0.00 0.00 32 1007.1
20260507214901 59 232 7.0 21.0 0.00 0.00 0.00 31 1007.0
20260507214143 59 257 5.0 21.0 0.00 0.00 0.00 32 1007.0
20260507213644 59 288 4.0 14.0 0.00 0.00 0.00 29 1007.1
20260507213139 60 248 4.0 14.0 0.00 0.00 0.00 29 1007.1
20260507212633 60 285 4.0 9.0 0.00 0.00 0.00 30 1007.1
20260507212134 59 351 4.0 9.0 0.00 0.00 0.00 32 1007.0
20260507211633 59 274 5.0 12.0 0.00 0.00 0.00 33 1007.1
20260507211106 59 288 5.0 12.0 0.00 0.00 0.00 32 1007.1
20260507210605 58 299 4.0 11.0 0.00 0.00 0.00 34 1007.2
20260507210335 58 296 3.0 10.0 0.00 0.00 0.00 31 1007.2
20260507205605 58 252 6.0 15.0 0.00 0.00 0.00 31 1007.3
20260507205100 58 277 7.0 16.0 0.00 0.00 0.00 30 1007.4
20260507205042 58 246 5.0 16.0 0.00 0.00 0.00 30 1007.4
20260507204057 59 310 4.0 13.0 0.00 0.00 0.00 31 1007.4
20260507203555 59 269 4.0 9.0 0.00 0.00 0.00 33 1007.7
20260507203052 59 166 4.0 9.0 0.00 0.00 0.00 33 1007.7
20260507202550 59 265 4.0 11.0 0.00 0.00 0.00 31 1007.7
20260507202046 58 219 5.0 11.0 0.00 0.00 0.00 37 1007.7
20260507201546 58 291 5.0 11.0 0.00 0.00 0.00 34 1007.8
20260507201036 58 296 3.0 9.0 0.00 0.00 0.00 33 1007.9
20260507200803 57 298 4.0 12.0 0.00 0.00 0.00 32 1007.9
20260507200034 57 344 4.0 12.0 0.00 0.00 0.00 32 1008.0
20260507195532 58 355 5.0 14.0 0.00 0.00 0.00 31 1008.0
20260507195028 57 273 5.0 14.0 0.00 0.00 0.00 32 1008.1
20260507194529 58 298 5.0 13.0 0.00 0.00 0.00 31 1008.2
20260507194251 58 184 5.0 14.0 0.00 0.00 0.00 32 1008.2
20260507193520 57 293 3.0 14.0 0.00 0.00 0.00 34 1008.1
20260507193021 57 5 4.0 14.0 0.00 0.00 0.00 33 1008.2
20260507192522 57 202 5.0 14.0 0.00 0.00 0.00 31 1008.3
20260507192019 56 252 3.0 12.0 0.00 0.00 0.00 35 1008.3
20260507191519 56 261 3.0 9.0 0.00 0.00 0.00 36 1008.3
20260507191019 56 194 4.0 14.0 0.00 0.00 0.00 32 1008.3
20260507190511 56 222 4.0 14.0 0.00 0.00 0.00 36 1008.4
20260507190012 56 196 4.0 14.0 0.00 0.00 0.00 31 1008.3
20260507185733 56 290 4.0 14.0 0.00 0.00 0.00 34 1008.4
20260507185009 56 182 4.0 13.0 0.00 0.00 0.00 34 1008.4
20260507184508 56 331 5.0 13.0 0.00 0.00 0.00 35 1008.5
20260507184004 56 286 4.0 12.0 0.00 0.00 0.00 34 1008.4
20260507183741 56 290 3.0 10.0 0.00 0.00 0.00 34 1008.5
20260507182956 56 323 3.0 10.0 0.00 0.00 0.00 36 1008.7
20260507182453 56 32 2.0 8.0 0.00 0.00 0.00 33 1008.6
20260507181948 55 286 2.0 9.0 0.00 0.00 0.00 34 1008.6
20260507181444 55 311 3.0 9.0 0.00 0.00 0.00 33 1008.7
20260507180945 54 327 3.0 12.0 0.00 0.00 0.00 36 1008.7
20260507180436 54 53 4.0 12.0 0.00 0.00 0.00 35 1008.8
20260507175929 55 309 4.0 12.0 0.00 0.00 0.00 35 1008.8
20260507175416 55 284 4.0 10.0 0.00 0.00 0.00 40 1009.0
20260507174917 54 229 3.0 9.0 0.00 0.00 0.00 40 1009.0
20260507174408 54 234 3.0 9.0 0.00 0.00 0.00 43 1009.0
20260507173908 54 5 4.0 12.0 0.00 0.00 0.00 36 1009.0
20260507173409 53 286 5.0 12.0 0.00 0.00 0.00 35 1009.2
20260507172907 53 256 4.0 9.0 0.00 0.00 0.00 39 1009.2
20260507172843 53 231 2.0 9.0 0.00 0.00 0.00 39 1009.2
20260507171854 52 336 3.0 9.0 0.00 0.00 0.00 38 1009.3
20260507171350 52 241 3.0 9.0 0.00 0.00 0.00 39 1009.3
20260507170842 52 250 3.0 8.0 0.00 0.00 0.00 38 1009.4
20260507170341 52 335 4.0 11.0 0.00 0.00 0.00 43 1009.4
20260507165836 52 93 4.0 11.0 0.00 0.00 0.00 44 1009.7
20260507165333 51 26 3.0 8.0 0.00 0.00 0.00 40 1009.6
20260507164833 51 173 3.0 8.0 0.00 0.00 0.00 38 1009.5
20260507164330 51 288 3.0 8.0 0.00 0.00 0.00 42 1009.7
20260507163832 51 32 3.0 9.0 0.00 0.00 0.00 38 1009.7
20260507163557 51 314 3.0 9.0 0.00 0.00 0.00 44 1009.8
20260507162822 50 195 4.0 10.0 0.00 0.00 0.00 40 1009.8
20260507162803 50 229 3.0 10.0 0.00 0.00 0.00 42 1009.8
20260507161823 51 315 2.0 8.0 0.00 0.00 0.00 40 1009.9
20260507161324 51 49 3.0 8.0 0.00 0.00 0.00 43 1009.9
20260507161039 50 331 2.0 8.0 0.00 0.00 0.00 43 1010.0
20260507160318 50 213 2.0 8.0 0.00 0.00 0.00 43 1010.0
20260507155818 50 355 3.0 12.0 0.00 0.00 0.00 43 1010.0
20260507155313 49 321 3.0 12.0 0.00 0.00 0.00 48 1010.0
20260507154815 49 235 2.0 8.0 0.00 0.00 0.00 45 1010.0
20260507154309 49 169 4.0 11.0 0.00 0.00 0.00 45 1010.1
20260507153807 49 234 4.0 11.0 0.00 0.00 0.00 45 1010.1
20260507153306 48 280 2.0 10.0 0.00 0.00 0.00 49 1010.0
20260507152802 48 34 4.0 11.0 0.00 0.00 0.00 46 1010.0
20260507152301 48 238 5.0 11.0 0.00 0.00 0.00 48 1010.0
20260507151758 47 293 4.0 9.0 0.00 0.00 0.00 47 1010.0
20260507151257 47 241 4.0 9.0 0.00 0.00 0.00 47 1010.1
20260507150753 47 244 2.0 9.0 0.00 0.00 0.00 48 1010.1
20260507150256 47 239 1.0 4.0 0.00 0.00 0.00 49 1010.1
20260507145755 47 239 2.0 10.0 0.00 0.00 0.00 50 1010.2
20260507145254 46 263 2.0 10.0 0.00 0.00 0.00 52 1010.2
20260507144751 46 223 2.0 7.0 0.00 0.00 0.00 52 1010.2
20260507144523 46 14 1.0 5.0 0.00 0.00 0.00 53 1010.3
20260507144239 45 315 1.0 5.0 0.00 0.00 0.00 52 1010.3
20260507143250 45 277 2.0 7.0 0.00 0.00 0.00 53 1010.3
20260507142743 44 279 2.0 7.0 0.00 0.00 0.00 53 1010.3
20260507142243 44 227 3.0 7.0 0.00 0.00 0.00 56 1010.3
20260507141742 44 240 2.0 7.0 0.00 0.00 0.00 56 1010.3
20260507141501 44 317 2.0 5.0 0.00 0.00 0.00 58 1010.3
20260507140955 43 285 2.0 5.0 0.00 0.00 0.00 60 1010.4
20260507140233 43 284 3.0 8.0 0.00 0.00 0.00 60 1010.4